Flag for Germany Weather past 2 weeks in Leipzig, Saxony, Germany

Now
55 °F

Passing clouds.


Feels Like: 54 °F
Forecast: 54 / 74 °F
Wind: 7 mph from Northeast

Location: Leipzig-Schkeuditz

Current Time: Sep 3, 2014 at 5:16:10 AM

Latest Report: Sep 3, 2014 at 4:50 AM


Visibility: N/A

Pressure: 30.21 "Hg

Humidity: 88%

Dew point: 52 °F

Location of LeipzigLocation

Historic Weather in Leipzig — Graph

°F

Leipzig temperature yesterday

Maximum temperature yesterday: 63 °F (at 11:20 AM)
Minimum temperature yesterday: 54 °F (at 11:20 PM)
Average temperature yesterday: 59 °F

Past Weeks' High & Low Weather Summary

 TemperatureHumidityPressure
High73 °F (Aug 28, 3:50 PM)100% (Aug 26, 1:20 AM)30.24 "Hg (Aug 26, 1:20 AM)
Low48 °F (Aug 20, 3:50 AM)35% (Aug 22, 2:20 PM)29.71 "Hg (Aug 26, 5:50 AM)
Average59 °F77%29.97 "Hg
* Reported Aug 19 4:20 AM — Sep 3 4:20 AM, Leipzig, Weather by CustomWeather, © 2014

Note: Actual official high and low records may vary slightly from our data, if they occured in-between our weather recording intervals... More about our weather records

Advertising

Leipzig weather history for previous 24 hours

 ConditionsComfort  
Time TempWeatherWind HumidityBarometerVisibility
4:20 AM
Sep 3
55 °FPassing clouds.7 mph88%30.24 "HgN/A
3:50 AM55 °FPassing clouds.7 mph94%30.24 "HgN/A
3:20 AM55 °FPassing clouds.8 mph94%30.24 "HgN/A
2:50 AM55 °FPartly cloudy.8 mph94%30.24 "HgN/A
2:20 AM55 °FPassing clouds.8 mph94%30.24 "HgN/A
1:50 AM55 °FPartly cloudy.5 mph94%30.24 "HgN/A
1:20 AM54 °FPassing clouds.6 mph100%30.24 "HgN/A
12:50 AM54 °FClear.5 mph94%30.24 "Hg10 mi
12:20 AM54 °FPassing clouds.5 mph94%30.24 "HgN/A
11:50 PM
Sep 2
54 °FClear.3 mph94%30.24 "Hg10 mi
11:20 PM54 °FClear.5 mph94%30.24 "Hg10 mi
10:50 PM55 °FClear.7 mph88%30.24 "Hg10 mi
10:20 PM55 °FClear.6 mph88%30.24 "Hg10 mi
9:50 PM55 °FClear.7 mph94%30.21 "Hg10 mi
9:20 PM57 °FClear.7 mph88%30.21 "Hg10 mi
8:50 PM57 °FSunny.5 mph88%30.21 "Hg10 mi
8:20 PM57 °FSunny.2 mph88%30.21 "Hg10 mi
7:50 PM59 °FSunny.5 mph82%30.21 "Hg10 mi
7:20 PM61 °FSunny.5 mph83%30.18 "Hg10 mi
6:50 PM61 °FPartly sunny.8 mph83%30.18 "HgN/A
6:20 PM61 °FPartly sunny.10 mph77%30.18 "HgN/A
5:50 PM61 °FPartly sunny.12 mph77%30.18 "HgN/A
5:20 PM61 °FPartly sunny.9 mph83%30.15 "HgN/A
4:50 PM61 °FBroken clouds.9 mph83%30.15 "HgN/A
4:20 PM61 °FBroken clouds.8 mph88%30.15 "HgN/A
3:50 PM61 °FPartly sunny.12 mph88%30.15 "HgN/A
3:20 PM61 °FPartly sunny.10 mph88%30.15 "HgN/A
2:50 PM61 °FPartly sunny.8 mph94%30.15 "Hg6 mi
2:20 PM59 °FDrizzle. Partly sunny.10 mph94%30.15 "Hg4 mi
1:50 PM61 °FBroken clouds.13 mph94%30.15 "HgN/A
1:20 PM63 °FBroken clouds.8 mph88%30.12 "HgN/A
12:50 PM63 °FBroken clouds.5 mph88%30.12 "HgN/A
12:20 PM61 °FLight rain. Broken clouds.6 mph94%30.12 "HgN/A
11:50 AM63 °FBroken clouds.6 mph88%30.12 "HgN/A
11:20 AM63 °FBroken clouds.5 mph88%30.12 "HgN/A
10:50 AM61 °FPartly sunny.2 mph94%30.12 "HgN/A
10:20 AM61 °FBroken clouds.3 mph94%30.12 "Hg6 mi
9:50 AM59 °FPartly sunny.3 mph100%30.09 "Hg4 mi
9:20 AM59 °FLight rain. Fog.5 mph100%30.09 "Hg3 mi
8:50 AM59 °FDrizzle. Fog.6 mph100%30.09 "Hg2 mi
8:20 AM57 °FDrizzle. Fog.5 mph100%30.09 "Hg2 mi
7:50 AM57 °FDrizzle. Fog.6 mph100%30.09 "Hg2 mi
7:20 AM57 °FDrizzle. Fog.5 mph100%30.09 "Hg1 mi
6:50 AM57 °FDrizzle. Fog.5 mph100%30.07 "Hg1 mi
6:20 AM57 °FDrizzle. Fog.5 mph100%30.07 "Hg2 mi
5:50 AM57 °FPassing clouds.5 mph100%30.07 "Hg2 mi
5:20 AM57 °FPassing clouds.3 mph100%30.07 "Hg2 mi
Weather by CustomWeather, © 2014

See weather overviewHow to use our weather pages